Date String (YYYY-MM-DD hh:mm:ss) UTC,Instrument flags,Ambient pressure (hPa),Sample flow (lpm),Bypass flow (lpm),Sample temperature (°C),Ambient temperature (°C),ASC tube jacket temperature (°C),LED temperature (°C),Box temperature (°C),Sample RH (%),Span deviation,Mass concentration (μg/m³),Mass concentration (μg/m³),Mass concentration (μg/m³)
DateTimeUTC,F1_M11,P_M11,Q1_M11,Q2_M11,T1_M11,T2_M11,T3_M11,T4_M11,T5_M11,U1_M11,ZSPAN_M11,X2_M11,X0_M11,X1_M11
2022-01-05 12:00:00,,0820.2,4.99,0.00,22.3,21.6,00.0,31.4,23.9,10.2,0000.0,0003.37,0009.48,0002.62
2022-01-05 12:01:00,,0820.2,5.01,0.00,22.3,22.2,00.0,31.4,24.1,10.1,0000.0,0003.42,0010.12,0002.64
2022-01-05 12:02:00,,0820.2,5.00,0.00,22.5,23.0,00.0,31.4,24.4,10.0,0000.0,0003.45,0011.18,0002.67
2022-01-05 12:03:00,,0820.2,5.00,0.00,22.6,23.2,00.0,31.5,24.5,09.9,0000.0,0003.49,0011.52,0002.74
2022-01-05 12:04:00,,0820.2,5.01,0.00,22.6,22.9,00.0,31.5,24.5,09.9,0000.0,0003.53,0011.48,0002.77
2022-01-05 12:05:00,,0820.2,4.99,0.00,22.6,22.7,00.0,31.5,24.4,09.8,0000.0,0003.55,0011.33,0002.78
2022-01-05 12:06:00,,0820.2,4.99,0.00,22.6,22.5,00.0,31.5,24.3,09.8,0000.0,0003.56,0011.57,0002.79
2022-01-05 12:07:00,,0820.1,5.01,0.00,22.6,22.3,00.0,31.5,24.2,09.9,0000.0,0003.55,0011.69,0002.79
2022-01-05 12:08:00,,0819.9,4.99,0.00,22.5,22.2,00.0,31.5,24.2,09.9,0000.0,0003.51,0011.61,0002.78
2022-01-05 12:09:00,,0819.9,5.00,0.00,22.5,22.0,00.0,31.5,24.1,10.0,0000.0,0003.45,0011.06,0002.74
2022-01-05 12:10:00,,0820.1,5.00,0.00,22.5,21.9,00.0,31.5,24.0,10.0,0000.0,0003.36,0010.74,0002.64
2022-01-05 12:11:00,,0820.2,5.00,0.00,22.4,21.8,00.0,31.5,24.0,10.0,0000.0,0003.28,0009.23,0002.57
2022-01-05 12:12:00,,0820.2,4.99,0.00,22.4,21.7,00.0,31.4,24.0,09.9,0000.0,0003.24,0008.64,0002.53
2022-01-05 12:13:00,,0820.2,5.01,0.00,22.3,21.6,00.0,31.4,23.9,10.0,0000.0,0003.20,0007.55,0002.49
2022-01-05 12:14:00,,0820.3,4.99,0.00,22.3,21.5,00.0,31.4,23.9,10.1,0000.0,0003.12,0006.81,0002.42
2022-01-05 12:15:00,,0820.4,5.00,0.00,22.3,21.7,00.0,31.4,23.9,10.1,0000.0,0003.04,0006.40,0002.36
2022-01-05 12:16:00,,0820.5,5.00,0.00,22.4,22.3,00.0,31.4,24.1,10.0,0000.0,0003.00,0006.33,0002.32
2022-01-05 12:17:00,,0820.3,5.00,0.00,22.5,23.0,00.0,31.5,24.4,09.9,0000.0,0002.90,0005.77,0002.29
2022-01-05 12:18:00,,0820.2,5.00,0.00,22.6,23.2,00.0,31.5,24.5,09.8,0000.0,0002.89,0005.39,0002.28
2022-01-05 12:19:00,,0820.2,5.00,0.00,22.6,22.9,00.0,31.5,24.5,09.9,0000.0,0002.86,0004.40,0002.25
2022-01-05 12:20:00,,0820.3,5.00,0.00,22.6,22.7,00.0,31.5,24.4,09.9,0000.0,0002.85,0004.35,0002.24
2022-01-05 12:21:00,,0820.5,5.00,0.00,22.6,22.5,00.0,31.5,24.3,09.9,0000.0,0002.94,0004.82,0002.29
2022-01-05 12:22:00,,0820.3,5.00,0.00,22.6,22.3,00.0,31.5,24.2,09.8,0000.0,0002.97,0005.77,0002.33
2022-01-05 12:23:00,,0819.9,4.99,0.00,22.5,22.1,00.0,31.5,24.2,09.9,0000.0,0002.92,0005.58,0002.31
2022-01-05 12:24:00,,0819.9,5.02,0.00,22.5,22.0,00.0,31.5,24.1,09.9,0000.0,0002.84,0006.12,0002.27
2022-01-05 12:25:00,,0819.9,4.99,0.00,22.4,21.8,00.0,31.5,24.0,09.8,0000.0,0002.77,0006.09,0002.21
2022-01-05 12:26:00,,0820.0,5.00,0.00,22.4,21.7,00.0,31.5,24.0,09.8,0000.0,0002.68,0005.96,0002.17
2022-01-05 12:27:00,,0820.0,5.00,0.00,22.4,21.6,00.0,31.4,23.9,09.8,0000.0,0002.62,0005.86,0002.14
2022-01-05 12:28:00,,0820.0,4.99,0.00,22.3,21.6,00.0,31.4,23.9,09.8,0000.0,0002.59,0005.84,0002.11
2022-01-05 12:29:00,,0820.0,5.02,0.00,22.4,22.1,00.0,31.4,24.1,09.8,0000.0,0002.46,0005.52,0002.03
2022-01-05 12:30:00,,0820.0,5.00,0.00,22.5,22.8,00.0,31.5,24.3,09.7,0000.0,0002.33,0005.23,0001.95
2022-01-05 12:31:00,,0819.8,4.99,0.00,22.6,23.3,00.0,31.5,24.5,09.6,0000.0,0002.28,0005.16,0001.92
2022-01-05 12:32:00,,0819.4,5.00,0.00,22.7,23.1,00.0,31.5,24.5,09.6,0000.0,0002.20,0004.99,0001.88
2022-01-05 12:33:00,,0819.6,4.99,0.00,22.6,22.8,00.0,31.5,24.3,09.6,0000.0,0002.14,0003.61,0001.82
2022-01-05 12:34:00,,0820.1,5.00,0.00,22.6,22.5,00.0,31.5,24.2,09.6,0000.0,0002.15,0003.70,0001.78
2022-01-05 12:35:00,,0820.2,5.01,0.00,22.5,22.3,00.0,31.5,24.2,09.6,0000.0,0002.14,0003.32,0001.77
2022-01-05 12:36:00,,0820.3,4.99,0.00,22.5,22.1,00.0,31.5,24.1,09.6,0000.0,0002.15,0002.97,0001.78
2022-01-05 12:37:00,,0820.1,5.00,0.00,22.5,22.0,00.0,31.5,24.1,09.6,0000.0,0002.15,0002.96,0001.80
2022-01-05 12:38:00,,0819.9,5.00,0.00,22.4,21.9,00.0,31.5,24.1,09.6,0000.0,0002.16,0002.93,0001.82
2022-01-05 12:39:00,,0819.9,5.00,0.00,22.4,21.7,00.0,31.5,24.0,09.7,0000.0,0002.12,0002.89,0001.80
2022-01-05 12:40:00,,0820.0,5.01,0.00,22.4,21.7,00.0,31.4,23.9,09.7,0000.0,0002.13,0002.88,0001.81
2022-01-05 12:41:00,,0820.1,4.99,0.00,22.3,21.7,00.0,31.4,23.9,09.7,0000.0,0002.14,0002.87,0001.83
2022-01-05 12:42:00,,0819.9,5.01,0.00,22.4,22.3,00.0,31.5,24.1,09.7,0000.0,0002.19,0003.36,0001.86
2022-01-05 12:43:00,,0820.0,4.99,0.00,22.5,23.0,00.0,31.5,24.4,09.6,0000.0,0002.22,0003.68,0001.87
2022-01-05 12:44:00,,0820.2,4.99,0.00,22.7,23.3,00.0,31.5,24.6,09.5,0000.0,0002.24,0003.72,0001.90
2022-01-05 12:45:00,,0820.1,5.01,0.00,22.7,23.0,00.0,31.5,24.6,09.5,0000.0,0002.20,0003.59,0001.91
2022-01-05 12:46:00,,0819.9,5.00,0.00,22.7,22.8,00.0,31.6,24.5,09.5,0000.0,0002.22,0004.39,0001.92
2022-01-05 12:47:00,,0819.9,5.00,0.00,22.7,22.6,00.0,31.6,24.4,09.5,0000.0,0002.26,0005.16,0001.93
2022-01-05 12:48:00,,0820.0,5.00,0.00,22.6,22.4,00.0,31.6,24.3,09.4,0000.0,0002.30,0005.26,0001.94
2022-01-05 12:49:00,,0820.0,5.01,0.00,22.6,22.2,00.0,31.5,24.2,09.4,0000.0,0002.31,0005.32,0001.95
2022-01-05 12:50:00,,0820.0,4.99,0.00,22.6,22.1,00.0,31.5,24.2,09.4,0000.0,0002.35,0005.42,0001.96
2022-01-05 12:51:00,,0820.0,5.00,0.00,22.6,22.0,00.0,31.5,24.2,09.4,0000.0,0002.36,0005.42,0001.97
2022-01-05 12:52:00,,0819.9,5.00,0.00,22.5,21.9,00.0,31.5,24.1,09.4,0000.0,0002.40,0005.52,0001.99
2022-01-05 12:53:00,,0819.8,5.00,0.00,22.5,21.8,00.0,31.5,24.1,09.4,0000.0,0002.44,0005.35,0002.01
2022-01-05 12:54:00,,0819.6,5.00,0.00,22.5,21.7,00.0,31.5,24.1,09.4,0000.0,0002.52,0005.09,0002.04
2022-01-05 12:55:00,,0819.9,4.99,0.00,22.4,21.7,00.0,31.5,24.0,09.4,0000.0,0002.59,0005.24,0002.08
2022-01-05 12:56:00,,0820.0,5.02,0.00,22.4,21.6,00.0,31.5,24.0,09.4,0000.0,0002.64,0005.27,0002.13
2022-01-05 12:57:00,,0819.8,5.00,0.00,22.4,21.6,00.0,31.5,24.0,09.4,0000.0,0002.68,0004.92,0002.16
2022-01-05 12:58:00,,0819.6,5.00,0.00,22.4,22.2,00.0,31.5,24.1,09.4,0000.0,0002.70,0004.72,0002.20
2022-01-05 12:59:00,,0819.8,4.99,0.00,22.6,23.0,00.0,31.5,24.4,09.4,0000.0,0002.66,0004.63,0002.20
